STARLINK-3772, 52290

Orbit data source: Space-Track

STARLINK-3772, 52290 is a payload satellite owned by SpaceX/Seattle (US) in LEO that was launched on Thu, 21 Apr 2022 UTC via an FALCON 9 launch vehicle from the Air Force Eastern Test Range (AFETR). Payload-class satellites include a variety of spacecraft equipped with specific instruments for various scientific and technological missions. These include communications satellites like Starlink; space stations such as the ISS; scientific satellites like the Hubble; Earth observation satellites from companies like Planet Labs, Umbra, and HawkEye 360; GPS; miniature CubeSats for education and research; and military/defense satellites.

Loading next visibility...
Identifier
52290, 2022-041AF
Orbit
LEO
Country
Flag of USUS
Related business
Manufacturer
SpaceX/Seattle
Mission
Operational Commercial Communications
Bus & Motor
STARLINK, Unknown motor
Mass
297 kg wet, ~275 kg dry
Launch date (UTC)
2022-04-21 (4 years ago)
Launch vehicle
FALCON 9
Launch site
Air Force Eastern Test Range (AFETR)
Object type
Payload
Rocket body
Debris
Shape & HBR
Box + 1 Pan, 10.1 m
Radar Cross Section
11.087 m², Large (>1 m²)

Expand to show TLE details & history
Last TLE update: 14 hours ago

TLE from 14 hours ago
0 STARLINK-3772
1 52290U 22041AF  26236.55253117 -.00000088  00000-0  83869-5 0  9991
2 52290  53.1619  57.4714 0001249  87.1433 272.9713 15.35395136239955
Epoch: 2026-08-24T13:15Z
TLE epoch observation values (Epoch: 2026-08-24T13:15:38.693Z)
Latitude
-0°
Longitude
-114.27241°
Altitude
460.605 km
Speed
7.638 km/s
True Right ascension
03h 49m 53s
True Declination
0° 00' 00"
Sunlit
Object was in daylight at epoch
Visualization orbit readout
Latitude
Unknown
Longitude
Unknown
Altitude
Unknown
Speed
Unknown
Apparent Right ascension
Unknown
Apparent Declination
Unknown
Sunlit
N/A
Visualization observer readout
Local Sidereal Time
18:14:11
Azimuth
Unknown
Elevation
Unknown
Doppler factor
Unknown
Orbital elements
Apogee altitude
460.858 km
Perigee altitude
459.15 km
Semi-major axis
6,838.141 km
Eccentricity
0.00012
Inclination
53.1619°
RAAN
57.4714°
Arg. of periapsis
87.1433°
True anomaly
272.95701°
Mean anomaly
272.9713°
Eccentric anomaly
272.96415°
Mean motion
3.83828 °/min
Orbital period
93.79 mins
BSTAR
0.0000083869
Loading maneuver chart data...
Computing Atmospheric mass density...
Loading historical data...
Loading historical data...
Loading historical data...
Loading historical data...
Loading historical data...
Loading historical data...
Loading historical data...

Documentation

Showing up to 5 results
|